FW6835 Weather Reports


Display with metric or nautical units.
time (UTC)temp
F
wind
direction
speed
MPH
gust
MPH
rain 1hr
in
rain 24hr
in
rain mn
in
humidity
%
barometer
mb
20260510053525 48 175 1.0 4.0 0.00 0.00 0.00 82 1017.8
20260510053045 47 227 0.0 5.0 0.00 0.00 0.00 83 1017.8
20260510052525 47 83 1.0 5.0 0.00 0.00 0.00 83 1017.8
20260510052024 47 62 0.0 4.0 0.00 0.00 0.00 84 1017.8
20260510051526 47 59 1.0 5.0 0.00 0.00 0.00 84 1017.8
20260510051023 47 79 1.0 5.0 0.00 0.00 0.00 84 1017.8
20260510050523 47 167 1.0 4.0 0.00 0.00 0.00 84 1017.9
20260510050028 46 80 1.0 5.0 0.00 0.00 0.00 84 1017.9
20260510045522 46 77 2.0 5.0 0.00 0.00 0.00 84 1017.9
20260510045022 46 65 1.0 8.0 0.00 0.00 0.00 85 1017.9
20260510044522 46 83 1.0 8.0 0.00 0.00 0.00 85 1018.0
20260510044021 45 80 2.0 6.0 0.00 0.00 0.00 85 1017.9
20260510043520 45 69 2.0 6.0 0.00 0.00 0.00 85 1017.8
20260510043036 45 82 1.0 4.0 0.00 0.00 0.00 86 1017.8
20260510042518 45 5 2.0 4.0 0.00 0.00 0.00 85 1017.8
20260510042018 45 71 1.0 4.0 0.00 0.00 0.00 85 1017.9
20260510041525 45 76 2.0 4.0 0.00 0.00 0.00 85 1018.0
20260510041018 45 55 1.0 4.0 0.00 0.00 0.00 85 1017.9
20260510040518 45 136 2.0 4.0 0.00 0.00 0.00 86 1018.1
20260510040032 45 69 1.0 3.0 0.00 0.00 0.00 86 1018.0
20260510035516 45 73 1.0 4.0 0.00 0.00 0.00 85 1018.0
20260510035016 45 71 1.0 4.0 0.00 0.00 0.00 85 1017.9
20260510034614 45 63 1.0 3.0 0.00 0.00 0.00 85 1018.0
20260510034015 45 39 1.0 6.0 0.00 0.00 0.00 85 1017.9
20260510033512 45 53 1.0 4.0 0.00 0.00 0.00 85 1017.9
20260510033012 45 24 2.0 4.0 0.00 0.00 0.00 84 1017.9
20260510032514 46 57 1.0 3.0 0.00 0.00 0.00 85 1017.8
20260510032011 46 138 0.0 6.0 0.00 0.00 0.00 84 1017.8
20260510031511 46 95 2.0 6.0 0.00 0.00 0.00 84 1017.9
20260510031010 46 34 1.0 6.0 0.00 0.00 0.00 84 1017.7
20260510030509 46 11 2.0 5.0 0.00 0.00 0.00 84 1017.9
20260510030009 46 38 1.0 3.0 0.00 0.00 0.00 84 1017.9
20260510025508 46 32 1.0 4.0 0.00 0.00 0.00 84 1017.9
20260510025008 46 68 1.0 4.0 0.00 0.00 0.00 83 1018.1
20260510024507 46 76 1.0 4.0 0.00 0.00 0.00 83 1018.0
20260510024010 46 69 1.0 4.0 0.00 0.00 0.00 83 1018.1
20260510023506 46 66 1.0 4.0 0.00 0.00 0.00 84 1018.2
20260510023007 46 5 1.0 6.0 0.00 0.00 0.00 84 1018.3
20260510022505 46 93 2.0 4.0 0.00 0.00 0.00 83 1018.3
20260510022004 46 75 0.0 7.0 0.00 0.00 0.00 83 1018.2
20260510021514 46 89 2.0 7.0 0.00 0.00 0.00 83 1018.5
20260510021004 46 101 2.0 4.0 0.00 0.00 0.00 82 1018.6
20260510020502 46 59 1.0 4.0 0.00 0.00 0.00 82 1018.6
20260510020002 46 40 0.0 6.0 0.00 0.00 0.00 83 1018.7
20260510015505 46 82 1.0 6.0 0.00 0.00 0.00 83 1018.8
20260510015001 46 52 0.0 3.0 0.00 0.00 0.00 84 1018.8
20260510014503 46 45 0.0 3.0 0.00 0.00 0.00 84 1018.7
20260510014002 46 80 1.0 4.0 0.00 0.00 0.00 83 1018.7
20260510013502 46 80 1.0 5.0 0.00 0.00 0.00 83 1018.8
20260510013100 46 23 1.0 5.0 0.00 0.00 0.00 83 1018.6
20260510012600 46 56 1.0 4.0 0.00 0.00 0.00 83 1018.7
20260510012101 46 48 2.0 4.0 0.00 0.00 0.00 84 1018.9
20260510011559 46 61 1.0 5.0 0.00 0.00 0.00 84 1018.8
20260510011158 46 82 2.0 5.0 0.00 0.00 0.00 85 1018.9
20260510010557 46 59 2.0 4.0 0.00 0.00 0.00 84 1019.0
20260510010056 46 26 1.0 4.0 0.00 0.00 0.00 84 1019.1
20260510005555 46 339 1.0 4.0 0.00 0.00 0.00 84 1019.3
20260510005054 46 40 1.0 4.0 0.00 0.00 0.00 83 1019.4
20260510004559 46 53 1.0 4.0 0.00 0.00 0.00 83 1019.4
20260510004054 47 97 2.0 4.0 0.00 0.00 0.00 83 1019.4
20260510003554 47 88 0.0 4.0 0.00 0.00 0.00 82 1019.4
20260510003055 47 77 2.0 4.0 0.00 0.00 0.00 82 1019.5
20260510002552 47 47 1.0 4.0 0.00 0.00 0.00 82 1019.5
20260510002052 47 59 1.0 4.0 0.00 0.00 0.00 82 1019.6
20260510001552 47 69 2.0 4.0 0.00 0.00 0.00 82 1019.7
20260510001051 47 342 1.0 5.0 0.00 0.00 0.00 82 1019.7
20260510000554 46 69 2.0 5.0 0.00 0.00 0.00 83 1019.7
20260510000058 46 61 1.0 5.0 0.00 0.00 0.00 83 1019.6
20260509235553 46 343 1.0 5.0 0.00 0.00 0.00 83 1019.7
20260509235050 46 17 1.0 4.0 0.00 0.00 0.00 83 1019.7
20260509234550 46 53 1.0 4.0 0.00 0.00 0.00 83 1019.8
20260509234049 46 17 1.0 4.0 0.00 0.00 0.00 83 1019.8
20260509233548 46 311 1.0 3.0 0.00 0.00 0.00 83 1019.8
20260509233047 47 290 1.0 4.0 0.00 0.00 0.00 83 1019.9
20260509232548 47 12 1.0 5.0 0.00 0.00 0.00 83 1020.0
20260509232046 47 22 1.0 6.0 0.00 0.00 0.00 82 1020.1
20260509231546 47 287 1.0 6.0 0.00 0.00 0.00 83 1020.0
20260509231047 47 71 1.0 6.0 0.00 0.00 0.00 82 1020.0
20260509230544 47 9 1.0 4.0 0.00 0.00 0.00 82 1020.1
20260509230044 47 343 1.0 4.0 0.00 0.00 0.00 82 1020.1
20260509225544 47 44 1.0 4.0 0.00 0.00 0.00 82 1020.2
20260509225042 47 36 1.0 4.0 0.00 0.00 0.00 82 1020.2
20260509224543 47 99 1.0 4.0 0.00 0.00 0.00 82 1020.2
20260509224042 47 9 1.0 4.0 0.00 0.00 0.00 82 1020.1
20260509223542 47 103 2.0 6.0 0.00 0.00 0.00 82 1020.1
20260509223042 47 85 1.0 4.0 0.00 0.00 0.00 82 1020.2
20260509222541 48 40 0.0 3.0 0.00 0.00 0.00 82 1020.2
20260509222040 48 24 2.0 5.0 0.00 0.00 0.00 82 1020.3
20260509221540 47 78 2.0 5.0 0.00 0.00 0.00 82 1020.3
20260509221039 47 32 1.0 4.0 0.00 0.00 0.00 83 1020.4
20260509220538 47 52 0.0 3.0 0.00 0.00 0.00 83 1020.5
20260509220039 47 41 0.0 3.0 0.00 0.00 0.00 83 1020.5
20260509215537 47 44 1.0 4.0 0.00 0.00 0.00 83 1020.5
20260509215036 47 343 1.0 4.0 0.00 0.00 0.00 83 1020.5
20260509214547 47 44 0.0 3.0 0.00 0.00 0.00 83 1020.5
20260509214036 47 33 0.0 5.0 0.00 0.00 0.00 83 1020.4
20260509213536 47 142 1.0 6.0 0.00 0.00 0.00 82 1020.4
20260509213037 47 50 2.0 6.0 0.00 0.00 0.00 83 1020.5
20260509212635 47 42 1.0 4.0 0.00 0.00 0.00 84 1020.3
20260509212035 47 303 1.0 3.0 0.00 0.00 0.00 84 1020.3
20260509211535 47 38 1.0 3.0 0.00 0.00 0.00 84 1020.3
20260509211035 47 13 0.0 4.0 0.00 0.00 0.00 84 1020.5
20260509210535 47 170 0.0 3.0 0.00 0.00 0.00 85 1020.5
20260509210039 47 324 1.0 3.0 0.00 0.00 0.00 84 1020.5
20260509205536 48 269 0.0 4.0 0.00 0.00 0.00 85 1020.5
20260509205035 47 16 1.0 4.0 0.00 0.00 0.00 85 1020.5
20260509204536 48 269 0.0 3.0 0.00 0.00 0.00 85 1020.6
20260509204034 48 267 1.0 5.0 0.00 0.00 0.00 85 1020.6
20260509203536 48 49 1.0 5.0 0.00 0.00 0.00 86 1020.6
20260509203033 48 307 0.0 3.0 0.00 0.00 0.00 86 1020.7
20260509202533 48 307 1.0 3.0 0.00 0.00 0.00 85 1020.5
20260509202034 48 307 1.0 4.0 0.00 0.00 0.00 85 1020.5
20260509201533 48 208 1.0 4.0 0.00 0.00 0.00 85 1020.5
20260509201033 48 304 0.0 2.0 0.00 0.00 0.00 85 1020.6
20260509200533 48 304 0.0 3.0 0.00 0.00 0.00 84 1020.5
20260509200035 48 304 1.0 3.0 0.00 0.00 0.00 84 1020.5
20260509195533 48 342 1.0 2.0 0.00 0.00 0.00 83 1020.5
20260509195032 48 355 0.0 3.0 0.00 0.00 0.00 83 1020.5
20260509194534 48 333 1.0 6.0 0.00 0.00 0.00 83 1020.5
20260509194032 48 342 1.0 6.0 0.00 0.00 0.00 83 1020.5
20260509193532 48 29 1.0 6.0 0.00 0.00 0.00 82 1020.4
20260509193033 48 5 1.0 4.0 0.00 0.00 0.00 83 1020.4
20260509192531 49 66 1.0 3.0 0.00 0.00 0.00 83 1020.5
20260509192031 49 67 1.0 3.0 0.00 0.00 0.00 83 1020.5
20260509191545 49 58 1.0 4.0 0.00 0.00 0.00 83 1020.4
20260509191030 49 61 1.0 4.0 0.00 0.00 0.00 83 1020.5
20260509190533 49 12 1.0 3.0 0.00 0.00 0.00 83 1020.4
20260509190032 49 94 0.0 4.0 0.00 0.00 0.00 82 1020.3
20260509185530 49 94 0.0 4.0 0.00 0.00 0.00 82 1020.4
20260509185030 49 87 1.0 4.0 0.00 0.00 0.00 81 1020.4
20260509184543 49 67 1.0 4.0 0.00 0.00 0.00 81 1020.4
20260509184030 49 33 0.0 4.0 0.00 0.00 0.00 81 1020.3
20260509183530 49 331 0.0 3.0 0.00 0.00 0.00 81 1020.3
20260509183043 49 34 1.0 3.0 0.00 0.00 0.00 81 1020.3
20260509182530 49 49 1.0 4.0 0.00 0.00 0.00 81 1020.1
20260509182028 49 56 1.0 3.0 0.00 0.00 0.00 81 1020.1
20260509181528 49 54 0.0 4.0 0.00 0.00 0.00 81 1020.3
20260509181028 50 10 0.0 2.0 0.00 0.00 0.00 81 1020.4
20260509180527 50 10 0.0 3.0 0.00 0.00 0.00 80 1020.4
20260509180028 50 63 1.0 3.0 0.00 0.00 0.00 80 1020.5
20260509175527 50 79 0.0 2.0 0.00 0.00 0.00 80 1020.5
20260509175027 51 84 0.0 1.0 0.00 0.00 0.00 80 1020.5
20260509174527 51 84 0.0 0.0 0.00 0.00 0.00 81 1020.5
20260509174027 51 84 0.0 0.0 0.00 0.00 0.00 80 1020.5
20260509173526 51 84 0.0 2.0 0.00 0.00 0.00 80 1020.5
20260509173026 51 84 0.0 2.0 0.00 0.00 0.00 78 1020.6
20260509172526 52 87 0.0 2.0 0.00 0.00 0.00 77 1020.4
20260509172025 52 55 0.0 3.0 0.00 0.00 0.00 76 1020.6
20260509171526 52 61 1.0 4.0 0.00 0.00 0.00 75 1020.6
20260509171024 52 58 1.0 4.0 0.00 0.00 0.00 75 1020.6
20260509170527 53 72 0.0 5.0 0.00 0.00 0.00 74 1020.6
20260509170025 53 88 1.0 6.0 0.00 0.00 0.00 73 1020.7
20260509165523 53 63 2.0 8.0 0.00 0.00 0.00 74 1020.7
20260509165023 53 65 3.0 8.0 0.00 0.00 0.00 72 1020.8
20260509164523 54 89 2.0 8.0 0.00 0.00 0.00 73 1020.7
20260509164024 54 103 0.0 6.0 0.00 0.00 0.00 73 1020.7
20260509163523 54 94 1.0 6.0 0.00 0.00 0.00 74 1020.8
20260509163032 54 90 2.0 5.0 0.00 0.00 0.00 72 1020.6
20260509162522 54 89 2.0 6.0 0.00 0.00 0.00 72 1020.7
20260509162023 54 103 2.0 9.0 0.00 0.00 0.00 72 1020.8
20260509161521 54 87 3.0 7.0 0.00 0.00 0.00 74 1020.7
20260509161023 53 60 1.0 7.0 0.00 0.00 0.00 74 1020.8
20260509160521 53 86 1.0 6.0 0.00 0.00 0.00 74 1020.8
20260509160021 53 78 2.0 7.0 0.00 0.00 0.00 75 1020.8
20260509155521 53 96 2.0 7.0 0.00 0.00 0.00 73 1020.9
20260509155020 54 88 2.0 6.0 0.00 0.00 0.00 72 1021.0
20260509154521 54 92 2.0 6.0 0.00 0.00 0.00 71 1020.9
20260509154019 54 114 0.0 6.0 0.00 0.00 0.00 71 1021.0
20260509153519 55 63 0.0 4.0 0.00 0.00 0.00 71 1021.0
20260509153024 55 82 1.0 6.0 0.00 0.00 0.00 69 1021.0
20260509152517 55 104 1.0 6.0 0.00 0.00 0.00 72 1021.1
20260509152016 54 69 2.0 4.0 0.00 0.00 0.00 70 1021.2
20260509151515 54 224 0.0 3.0 0.00 0.00 0.00 71 1021.0
20260509151014 54 230 1.0 3.0 0.00 0.00 0.00 70 1021.2
20260509150515 54 94 0.0 3.0 0.00 0.00 0.00 71 1021.0
20260509150013 53 90 0.0 3.0 0.00 0.00 0.00 69 1021.1
20260509145514 53 90 0.0 3.0 0.00 0.00 0.00 73 1021.1
20260509145013 53 43 0.0 5.0 0.00 0.00 0.00 71 1021.1
20260509144513 53 87 1.0 5.0 0.00 0.00 0.00 71 1021.2
20260509144015 53 88 1.0 4.0 0.00 0.00 0.00 71 1021.2
20260509143513 53 68 2.0 7.0 0.00 0.00 0.00 73 1021.3
20260509143012 53 116 2.0 7.0 0.00 0.00 0.00 71 1021.3
20260509142515 53 101 1.0 7.0 0.00 0.00 0.00 70 1021.2
20260509142011 53 98 3.0 7.0 0.00 0.00 0.00 70 1021.2
20260509141511 53 63 1.0 3.0 0.00 0.00 0.00 71 1021.4
20260509141010 53 83 0.0 3.0 0.00 0.00 0.00 74 1021.4
20260509140509 53 83 0.0 3.0 0.00 0.00 0.00 74 1021.4
20260509140013 53 73 0.0 2.0 0.00 0.00 0.00 75 1021.4
20260509135508 53 71 0.0 4.0 0.00 0.01 0.00 75 1021.5
20260509135009 53 88 0.0 6.0 0.00 0.01 0.00 75 1021.5
20260509134508 53 81 0.0 6.0 0.00 0.01 0.00 73 1021.6
20260509134007 53 69 2.0 5.0 0.00 0.01 0.00 72 1021.7
20260509133508 53 78 1.0 3.0 0.00 0.01 0.00 72 1021.6
20260509133008 53 77 0.0 4.0 0.00 0.01 0.00 74 1021.6
20260509132507 52 77 1.0 4.0 0.00 0.01 0.00 72 1021.6
20260509132007 52 107 0.0 6.0 0.00 0.01 0.00 72 1021.7
20260509131509 53 76 1.0 5.0 0.00 0.01 0.00 74 1021.7
20260509131006 53 59 2.0 6.0 0.00 0.01 0.00 73 1021.7
20260509130507 53 71 2.0 6.0 0.00 0.01 0.00 72 1021.8
20260509130018 53 100 2.0 6.0 0.00 0.01 0.00 72 1021.9
20260509125505 53 42 1.0 10.0 0.00 0.01 0.00 73 1021.9
20260509125008 54 109 1.0 6.0 0.00 0.01 0.00 73 1021.8
20260509124505 54 59 3.0 6.0 0.00 0.01 0.00 72 1021.9
20260509124007 54 106 0.0 3.0 0.00 0.01 0.00 77 1021.8
20260509123504 53 71 1.0 4.0 0.00 0.01 0.00 74 1021.9
20260509123005 53 283 0.0 4.0 0.00 0.01 0.00 73 1021.8
20260509122502 53 98 2.0 4.0 0.00 0.01 0.00 74 1022.0
20260509122001 53 251 1.0 3.0 0.00 0.01 0.00 75 1022.0
20260509121502 53 164 0.0 5.0 0.00 0.01 0.00 73 1022.0
20260509121004 53 101 2.0 5.0 0.00 0.01 0.00 73 1022.1
20260509120601 53 316 2.0 4.0 0.00 0.01 0.00 74 1022.1
20260509120101 53 80 1.0 4.0 0.00 0.01 0.00 75 1022.1
20260509115600 52 207 1.0 5.0 0.00 0.01 0.00 76 1022.2
20260509115100 53 91 2.0 6.0 0.00 0.01 0.00 76 1022.2
20260509114610 52 82 1.0 6.0 0.00 0.01 0.00 76 1022.2
20260509114059 53 90 1.0 6.0 0.00 0.01 0.00 76 1022.3
20260509113601 52 109 1.0 6.0 0.00 0.01 0.00 74 1022.3
20260509113158 52 67 2.0 6.0 0.00 0.01 0.00 73 1022.2
20260509112557 52 128 0.0 5.0 0.00 0.01 0.00 78 1022.2
20260509112056 52 80 2.0 5.0 0.00 0.01 0.00 74 1022.3
20260509111556 52 96 1.0 4.0 0.00 0.01 0.00 75 1022.4
20260509111056 52 138 0.0 3.0 0.00 0.01 0.00 74 1022.3
20260509110558 52 135 1.0 4.0 0.00 0.01 0.00 74 1022.4
20260509110104 52 253 0.0 4.0 0.00 0.01 0.00 77 1022.4
20260509105555 51 246 1.0 4.0 0.00 0.01 0.00 77 1022.3
20260509105055 51 101 2.0 4.0 0.00 0.01 0.00 74 1022.5
20260509104555 51 118 1.0 3.0 0.00 0.01 0.00 75 1022.5
20260509104154 51 72 1.0 4.0 0.00 0.01 0.00 74 1022.4
20260509103556 51 87 2.0 4.0 0.00 0.01 0.00 74 1022.5
20260509103101 51 59 1.0 3.0 0.00 0.01 0.00 75 1022.5
20260509102553 51 88 0.0 5.0 0.00 0.01 0.00 75 1022.5
20260509102054 51 88 0.0 5.0 0.00 0.01 0.00 77 1022.6
20260509101603 51 76 0.0 4.0 0.00 0.01 0.00 77 1022.5
20260509101052 51 83 2.0 4.0 0.00 0.01 0.00 77 1022.4
20260509100553 51 84 2.0 6.0 0.00 0.01 0.00 77 1022.6
20260509100053 51 115 2.0 6.0 0.00 0.01 0.00 76 1022.5
20260509095552 51 84 1.0 5.0 0.00 0.01 0.00 78 1022.6
20260509095052 50 269 1.0 4.0 0.00 0.01 0.00 78 1022.6
20260509094603 50 70 0.0 5.0 0.00 0.01 0.00 78 1022.6
20260509094052 50 86 3.0 5.0 0.00 0.01 0.00 77 1022.5
20260509093551 50 249 0.0 4.0 0.00 0.01 0.00 80 1022.6
20260509093051 50 174 0.0 5.0 0.00 0.01 0.00 78 1022.5
20260509092551 50 99 1.0 5.0 0.00 0.01 0.00 77 1022.5
20260509092050 50 49 1.0 4.0 0.00 0.01 0.00 76 1022.5
20260509091550 50 104 1.0 3.0 0.00 0.01 0.00 76 1022.5
20260509091050 50 87 1.0 4.0 0.00 0.01 0.00 76 1022.4
20260509090553 51 75 1.0 6.0 0.00 0.01 0.00 78 1022.5
20260509090059 51 355 2.0 6.0 0.00 0.01 0.00 77 1022.5
20260509085549 50 68 0.0 4.0 0.00 0.01 0.00 76 1022.5
20260509085049 50 65 1.0 4.0 0.00 0.01 0.00 77 1022.4
20260509084553 50 119 0.0 4.0 0.00 0.01 0.00 78 1022.4
20260509084050 50 65 0.0 4.0 0.00 0.01 0.00 76 1022.6
20260509083549 51 89 1.0 3.0 0.00 0.01 0.00 76 1022.5
20260509083057 51 87 1.0 4.0 0.00 0.01 0.00 75 1022.5
20260509082548 52 72 2.0 8.0 0.00 0.01 0.00 75 1022.5
20260509082049 52 85 1.0 8.0 0.00 0.01 0.00 75 1022.5
20260509081548 52 80 1.0 6.0 0.00 0.01 0.00 78 1022.4
20260509081048 51 78 1.0 4.0 0.00 0.01 0.00 76 1022.2
20260509080548 51 182 1.0 4.0 0.00 0.01 0.00 77 1022.3
20260509080047 51 134 0.0 4.0 0.00 0.01 0.00 74 1022.3
20260509075545 51 126 0.0 7.0 0.00 0.01 0.00 75 1022.4
20260509075044 50 84 2.0 10.0 0.00 0.01 0.00 75 1022.3
20260509074551 50 83 1.0 10.0 0.00 0.01 0.00 78 1022.4
20260509074043 51 89 3.0 6.0 0.00 0.01 0.00 79 1022.5
20260509073542 51 90 2.0 5.0 0.00 0.01 0.00 77 1022.5
20260509073040 50 78 1.0 4.0 0.00 0.01 0.00 79 1022.5
20260509072540 50 111 1.0 8.0 0.00 0.01 0.00 83 1022.5
20260509072039 50 76 2.0 9.0 0.00 0.01 0.00 83 1022.4
20260509071543 49 105 2.0 7.0 0.00 0.01 0.00 82 1022.3
20260509071037 49 40 2.0 8.0 0.00 0.01 0.00 85 1022.5
20260509070537 49 53 1.0 8.0 0.00 0.01 0.00 86 1022.4
20260509070036 49 90 3.0 9.0 0.00 0.01 0.00 85 1022.4
20260509065534 49 95 3.0 9.0 0.00 0.01 0.00 87 1022.4
20260509065033 49 86 1.0 7.0 0.00 0.01 0.00 89 1022.4
20260509064532 48 74 2.0 7.0 0.00 0.01 0.00 90 1022.3
20260509064031 48 94 2.0 6.0 0.00 0.01 0.00 91 1022.3
20260509063530 47 77 1.0 5.0 0.00 0.01 0.00 93 1022.4
20260509063028 46 63 0.0 4.0 0.00 0.01 0.00 93 1022.4
20260509062527 46 90 0.0 3.0 0.00 0.01 0.00 94 1022.4
20260509062026 46 90 0.0 3.0 0.00 0.01 0.00 93 1022.4
20260509061525 46 80 1.0 7.0 0.00 0.01 0.00 94 1022.3
20260509061030 46 58 1.0 7.0 0.00 0.01 0.00 94 1022.3
20260509060524 45 71 1.0 7.0 0.00 0.01 0.00 94 1022.2
20260509060023 45 87 1.0 7.0 0.00 0.01 0.00 94 1022.4
20260509055526 45 33 0.0 3.0 0.00 0.01 0.00 95 1022.4
20260509055021 45 71 1.0 3.0 0.00 0.01 0.00 95 1022.2
20260509054520 45 78 1.0 3.0 0.00 0.01 0.00 95 1022.2
20260509054019 45 78 0.0 4.0 0.00 0.01 0.00 95 1022.1